Schneifelwetter: Wetterstation Hallschlag, 537 m . NN
Wetterdaten: Donnerstag, 05.06.2008
Datum Zeit Temp. A. Temp. 2 Feuchte A. Luftdruck Regen Wind Richtung Richtung Sonnenschein Helligkeit T Regen Taupunkt Windchill
05.06.2008 00:01 14,0 C 13,7 C 95 % 1015 hPa 0,0 l/m 0,0 km/h (0 Bft) NW 305 0 min 0 lux 0,00 min 13,2 C 14,0 C
05.06.2008 00:16 14,0 C 13,8 C 95 % 1015 hPa 0,0 l/m 0,0 km/h (0 Bft) NW 305 0 min 0 lux 0,00 min 13,2 C 14,0 C
05.06.2008 00:31 14,1 C 13,9 C 95 % 1015 hPa 0,0 l/m 0,3 km/h (0 Bft) NW 325 0 min 0 lux 0,00 min 13,3 C 14,1 C
05.06.2008 00:46 14,2 C 13,9 C 95 % 1015 hPa 0,0 l/m 6,8 km/h (2 Bft) N22.5 360 0 min 0 lux 0,00 min 13,4 C 14,0 C
05.06.2008 01:01 14,2 C 13,9 C 95 % 1015 hPa 0,0 l/m 1,1 km/h (1 Bft) N 350 0 min 0 lux 0,00 min 13,4 C 14,2 C
05.06.2008 01:16 14,1 C 13,8 C 95 % 1015 hPa 0,0 l/m 5,8 km/h (2 Bft) N22.5 360 0 min 0 lux 0,00 min 13,3 C 14,1 C
05.06.2008 01:31 14,1 C 13,9 C 95 % 1015 hPa 0,0 l/m 8,0 km/h (2 Bft) N-NW22.5 330 0 min 0 lux 0,00 min 13,3 C 13,2 C
05.06.2008 01:46 14,2 C 13,9 C 95 % 1015 hPa 0,0 l/m 7,0 km/h (2 Bft) N 360 0 min 0 lux 0,00 min 13,4 C 13,8 C
05.06.2008 02:01 14,2 C 14,0 C 95 % 1014 hPa 0,0 l/m 5,5 km/h (1 Bft) N-NO 15 0 min 0 lux 0,00 min 13,4 C 14,2 C
05.06.2008 02:16 14,2 C 14,0 C 95 % 1014 hPa 0,0 l/m 8,6 km/h (2 Bft) N22.5 5 0 min 0 lux 0,00 min 13,4 C 12,9 C
05.06.2008 02:31 14,2 C 13,9 C 95 % 1014 hPa 0,0 l/m 7,3 km/h (2 Bft) N 360 0 min 0 lux 0,00 min 13,4 C 13,7 C
05.06.2008 02:46 14,1 C 13,9 C 95 % 1014 hPa 0,0 l/m 5,6 km/h (1 Bft) N-NW 330 0 min 0 lux 0,00 min 13,3 C 14,1 C
05.06.2008 03:01 14,1 C 13,8 C 95 % 1014 hPa 0,0 l/m 3,9 km/h (1 Bft) NW 325 0 min 0 lux 0,00 min 13,3 C 14,1 C
05.06.2008 03:16 14,0 C 13,8 C 95 % 1014 hPa 0,0 l/m 0,3 km/h (0 Bft) NW 325 0 min 0 lux 0,00 min 13,2 C 14,0 C
05.06.2008 03:31 14,0 C 13,8 C 95 % 1014 hPa 0,0 l/m 0,0 km/h (0 Bft) NW 325 0 min 0 lux 0,00 min 13,2 C 14,0 C
05.06.2008 03:46 14,0 C 13,8 C 95 % 1014 hPa 0,0 l/m 0,0 km/h (0 Bft) NW 325 0 min 0 lux 0,00 min 13,2 C 14,0 C
05.06.2008 04:01 14,0 C 13,9 C 95 % 1014 hPa 0,0 l/m 0,0 km/h (0 Bft) NW 325 0 min 0 lux 0,00 min 13,2 C 14,0 C
05.06.2008 04:16 14,0 C 13,9 C 95 % 1014 hPa 0,0 l/m 0,0 km/h (0 Bft) NW 325 0 min 0 lux 0,00 min 13,2 C 14,0 C
05.06.2008 04:31 14,0 C 13,9 C 95 % 1014 hPa 0,0 l/m 4,1 km/h (1 Bft) N22.5 350 0 min 0 lux 0,00 min 13,2 C 14,0 C
05.06.2008 04:46 13,9 C 13,8 C 95 % 1014 hPa 0,0 l/m 3,5 km/h (1 Bft) NW 310 0 min 0 lux 0,00 min 13,1 C 13,9 C
05.06.2008 05:01 13,8 C 13,8 C 95 % 1014 hPa 0,0 l/m 5,6 km/h (1 Bft) W22.5 280 0 min 0 lux 0,00 min 13,0 C 13,8 C
05.06.2008 05:16 13,8 C 13,6 C 95 % 1013 hPa 0,0 l/m 4,6 km/h (1 Bft) W22.5 265 0 min 0 lux 0,00 min 13,0 C 13,8 C
05.06.2008 05:31 13,6 C 13,6 C 95 % 1013 hPa 0,0 l/m 9,7 km/h (2 Bft) NW45 305 0 min 162 lux 0,00 min 12,8 C 11,7 C
05.06.2008 05:46 13,6 C 13,6 C 96 % 1013 hPa 0,0 l/m 5,5 km/h (1 Bft) NW22.5 305 0 min 289 lux 0,00 min 13,0 C 13,6 C
05.06.2008 06:01 13,6 C 13,6 C 96 % 1013 hPa 0,0 l/m 0,9 km/h (0 Bft) NW22.5 305 0 min 900 lux 0,00 min 13,0 C 13,6 C
05.06.2008 06:16 13,6 C 13,6 C 96 % 1013 hPa 0,0 l/m 4,8 km/h (1 Bft) N-NW45 330 0 min 1,07 klux 0,00 min 13,0 C 13,6 C
05.06.2008 06:31 13,6 C 13,7 C 96 % 1013 hPa 0,0 l/m 9,8 km/h (2 Bft) W-NW67.5 300 0 min 1,08 klux 0,00 min 13,0 C 11,7 C
05.06.2008 06:46 13,7 C 13,8 C 96 % 1013 hPa 0,0 l/m 4,3 km/h (1 Bft) N-NW22.5 330 0 min 1,90 klux 0,00 min 13,1 C 13,7 C
05.06.2008 07:01 13,8 C 13,8 C 96 % 1013 hPa 0,0 l/m 8,2 km/h (2 Bft) NW67.5 305 0 min 2,13 klux 0,00 min 13,2 C 12,7 C
05.06.2008 07:16 13,8 C 13,9 C 96 % 1013 hPa 0,0 l/m 3,0 km/h (1 Bft) N 360 0 min 1,84 klux 0,00 min 13,2 C 13,8 C
05.06.2008 07:31 13,8 C 13,9 C 95 % 1013 hPa 0,0 l/m 2,8 km/h (1 Bft) N-NW 345 0 min 1,86 klux 0,00 min 13,0 C 13,8 C
05.06.2008 07:46 13,8 C 13,9 C 95 % 1013 hPa 0,0 l/m 3,6 km/h (1 Bft) NW22.5 305 0 min 1,58 klux 0,00 min 13,0 C 13,8 C
05.06.2008 08:01 13,7 C 13,8 C 95 % 1013 hPa 0,0 l/m 3,9 km/h (1 Bft) W-NW22.5 300 0 min 1,80 klux 0,00 min 12,9 C 13,7 C
05.06.2008 08:16 13,6 C 13,8 C 95 % 1014 hPa 0,0 l/m 7,7 km/h (2 Bft) NW22.5 320 0 min 2,31 klux 0,00 min 12,8 C 12,8 C
05.06.2008 08:31 13,6 C 13,8 C 95 % 1014 hPa 0,0 l/m 9,4 km/h (2 Bft) NW22.5 310 0 min 3,22 klux 0,00 min 12,8 C 11,9 C
05.06.2008 08:46 13,5 C 13,7 C 95 % 1014 hPa 0,0 l/m 8,3 km/h (2 Bft) N-NW45 335 0 min 3,87 klux 0,00 min 12,7 C 12,4 C
05.06.2008 09:01 13,6 C 13,8 C 95 % 1014 hPa 0,0 l/m 9,8 km/h (2 Bft) N-NW45 340 0 min 6,03 klux 0,00 min 12,8 C 11,7 C
05.06.2008 09:16 13,7 C 14,0 C 95 % 1014 hPa 0,0 l/m 4,9 km/h (1 Bft) NW22.5 320 0 min 6,08 klux 0,00 min 12,9 C 13,7 C
05.06.2008 09:32 14,0 C 14,3 C 95 % 1014 hPa 0,0 l/m 5,5 km/h (1 Bft) N45 355 0 min 10,6 klux 0,00 min 13,2 C 14,0 C
05.06.2008 09:46 14,2 C 14,6 C 94 % 1013 hPa 0,3 l/m 9,5 km/h (2 Bft) N-NO22.5 15 0 min 9,7 klux 14,00 min 13,2 C 12,5 C
05.06.2008 10:01 14,4 C 15,0 C 94 % 1013 hPa 0,0 l/m 9,4 km/h (2 Bft) N22.5 355 0 min 13,0 klux 0,00 min 13,4 C 12,7 C
05.06.2008 10:16 14,7 C 15,3 C 94 % 1013 hPa 0,0 l/m 10,0 km/h (2 Bft) N-NO45 20 0 min 16,9 klux 0,00 min 13,7 C 12,8 C
05.06.2008 10:31 15,2 C 16,0 C 93 % 1013 hPa 0,0 l/m 14,8 km/h (3 Bft) N45 5 0 min 21,5 klux 0,00 min 14,1 C 11,5 C
05.06.2008 10:46 15,6 C 16,8 C 92 % 1013 hPa 0,0 l/m 16,0 km/h (3 Bft) N-NO45 15 0 min 26,5 klux 0,00 min 14,3 C 11,6 C
05.06.2008 11:01 15,6 C 17,1 C 90 % 1013 hPa 0,0 l/m 21,0 km/h (4 Bft) N-NO22.5 25 0 min 22,7 klux 0,00 min 14,0 C 10,3 C
05.06.2008 11:17 15,6 C 17,5 C 90 % 1013 hPa 0,0 l/m 17,7 km/h (3 Bft) N-NO45 25 0 min 24,5 klux 0,00 min 14,0 C 11,1 C
05.06.2008 11:31 15,6 C 17,4 C 90 % 1013 hPa 0,0 l/m 18,1 km/h (3 Bft) NO22.5 40 0 min 23,8 klux 0,00 min 14,0 C 11,0 C
05.06.2008 11:46 15,8 C 17,6 C 90 % 1013 hPa 0,0 l/m 15,3 km/h (3 Bft) N-NO22.5 30 0 min 25,5 klux 0,00 min 14,2 C 12,1 C
05.06.2008 12:01 15,8 C 17,6 C 89 % 1013 hPa 0,0 l/m 15,2 km/h (3 Bft) N-NO22.5 15 0 min 23,9 klux 0,00 min 14,0 C 12,1 C
05.06.2008 12:16 15,6 C 17,2 C 90 % 1013 hPa 0,0 l/m 13,7 km/h (3 Bft) N-NO22.5 15 0 min 11,6 klux 0,00 min 14,0 C 12,3 C
05.06.2008 12:31 15,7 C 17,3 C 90 % 1013 hPa 0,0 l/m 15,3 km/h (3 Bft) N-NO22.5 15 0 min 32,5 klux 0,00 min 14,1 C 11,9 C
05.06.2008 12:46 15,9 C 17,6 C 89 % 1013 hPa 0,0 l/m 17,5 km/h (3 Bft) NO22.5 35 0 min 26,8 klux 0,00 min 14,1 C 11,6 C
05.06.2008 13:01 16,0 C 18,0 C 89 % 1013 hPa 0,0 l/m 17,6 km/h (3 Bft) NO22.5 35 0 min 25,1 klux 0,00 min 14,2 C 11,7 C
05.06.2008 13:17 16,1 C 18,1 C 89 % 1013 hPa 0,0 l/m 18,0 km/h (3 Bft) N-NO22.5 30 0 min 33,2 klux 0,00 min 14,3 C 11,7 C
05.06.2008 13:31 16,4 C 18,5 C 89 % 1013 hPa 0,0 l/m 15,2 km/h (3 Bft) N-NO22.5 20 0 min 32,8 klux 0,00 min 14,6 C 12,8 C
05.06.2008 13:46 16,2 C 18,5 C 87 % 1013 hPa 0,0 l/m 18,0 km/h (3 Bft) N-NO22.5 15 0 min 31,0 klux 0,00 min 14,0 C 11,8 C
05.06.2008 14:01 16,0 C 18,3 C 88 % 1013 hPa 0,0 l/m 13,7 km/h (3 Bft) N-NO22.5 15 0 min 29,4 klux 0,00 min 14,0 C 12,8 C
05.06.2008 14:16 16,0 C 18,1 C 89 % 1013 hPa 0,0 l/m 15,3 km/h (3 Bft) N-NO22.5 20 0 min 31,3 klux 0,00 min 14,2 C 12,3 C
05.06.2008 14:31 16,7 C 18,8 C 88 % 1013 hPa 0,0 l/m 15,2 km/h (3 Bft) N-NO45 20 0 min 39,0 klux 0,00 min 14,7 C 13,2 C
05.06.2008 14:46 17,1 C 19,8 C 84 % 1013 hPa 0,0 l/m 19,6 km/h (3 Bft) N-NO22.5 15 0 min 47,2 klux 0,00 min 14,4 C 12,6 C
05.06.2008 15:01 17,4 C 20,3 C 83 % 1013 hPa 0,0 l/m 18,1 km/h (3 Bft) N-NO22.5 15 0 min 37,3 klux 0,00 min 14,5 C 13,3 C
05.06.2008 15:16 17,6 C 20,7 C 83 % 1013 hPa 0,0 l/m 18,2 km/h (3 Bft) N-NO22.5 25 0 min 47,1 klux 0,00 min 14,7 C 13,5 C
05.06.2008 15:31 17,8 C 21,0 C 81 % 1013 hPa 0,0 l/m 20,8 km/h (4 Bft) N-NO22.5 20 0 min 50,4 klux 0,00 min 14,5 C 13,2 C
05.06.2008 15:46 18,1 C 21,9 C 80 % 1013 hPa 0,0 l/m 16,8 km/h (3 Bft) N-NO22.5 25 0 min 42,7 klux 0,00 min 14,6 C 14,5 C
05.06.2008 16:01 18,0 C 21,8 C 80 % 1013 hPa 0,0 l/m 18,0 km/h (3 Bft) N45 5 0 min 56,8 klux 0,00 min 14,5 C 14,1 C
05.06.2008 16:16 17,7 C 22,4 C 80 % 1012 hPa 0,0 l/m 22,0 km/h (4 Bft) N-NO67.5 15 0 min 54,6 klux 0,00 min 14,2 C 12,8 C
05.06.2008 16:31 17,9 C 22,2 C 80 % 1013 hPa 0,0 l/m 18,2 km/h (3 Bft) N45 10 0 min 47,0 klux 0,00 min 14,4 C 13,9 C
05.06.2008 16:47 17,8 C 21,4 C 79 % 1013 hPa 0,0 l/m 18,1 km/h (3 Bft) NW45 320 0 min 35,3 klux 0,00 min 14,1 C 13,8 C
05.06.2008 17:01 17,6 C 20,6 C 79 % 1013 hPa 0,0 l/m 20,1 km/h (4 Bft) N45 360 0 min 31,3 klux 0,00 min 13,9 C 13,1 C
05.06.2008 17:16 17,0 C 19,6 C 80 % 1013 hPa 0,0 l/m 22,2 km/h (4 Bft) N-NW67.5 345 0 min 28,2 klux 0,00 min 13,5 C 11,9 C
05.06.2008 17:31 16,6 C 18,9 C 83 % 1013 hPa 0,0 l/m 17,8 km/h (3 Bft) N67.5 350 0 min 28,2 klux 0,00 min 13,7 C 12,4 C
05.06.2008 17:46 16,7 C 19,0 C 83 % 1012 hPa 0,0 l/m 16,0 km/h (3 Bft) N-NW67.5 340 0 min 30,9 klux 0,00 min 13,8 C 13,0 C
05.06.2008 18:01 16,4 C 18,3 C 83 % 1012 hPa 0,0 l/m 16,8 km/h (3 Bft) N45 360 0 min 20,8 klux 0,00 min 13,5 C 12,4 C
05.06.2008 18:16 16,4 C 18,4 C 83 % 1012 hPa 0,0 l/m 15,0 km/h (3 Bft) N67.5 350 0 min 26,6 klux 0,00 min 13,5 C 12,9 C
05.06.2008 18:32 16,4 C 18,2 C 84 % 1012 hPa 0,0 l/m 15,8 km/h (3 Bft) N45 355 0 min 23,1 klux 0,00 min 13,7 C 12,7 C
05.06.2008 18:46 16,0 C 17,5 C 85 % 1013 hPa 0,0 l/m 14,2 km/h (3 Bft) N-NW22.5 340 0 min 15,4 klux 0,00 min 13,5 C 12,7 C
05.06.2008 19:01 16,0 C 17,2 C 85 % 1013 hPa 0,0 l/m 18,4 km/h (3 Bft) N22.5 5 0 min 16,6 klux 0,00 min 13,5 C 11,4 C
05.06.2008 19:16 16,0 C 17,2 C 85 % 1012 hPa 0,0 l/m 15,3 km/h (3 Bft) N-NW45 330 0 min 16,8 klux 0,00 min 13,5 C 12,3 C
05.06.2008 19:31 16,0 C 17,1 C 85 % 1012 hPa 0,0 l/m 12,1 km/h (2 Bft) NW45 310 0 min 17,3 klux 0,00 min 13,5 C 13,4 C
05.06.2008 19:46 15,9 C 16,7 C 86 % 1012 hPa 0,0 l/m 12,4 km/h (3 Bft) NW67.5 310 0 min 13,0 klux 0,00 min 13,6 C 13,2 C
05.06.2008 20:01 15,6 C 16,2 C 86 % 1012 hPa 0,0 l/m 11,5 km/h (2 Bft) NW45 320 0 min 6,46 klux 0,00 min 13,3 C 13,2 C
05.06.2008 20:16 15,2 C 15,7 C 87 % 1013 hPa 0,0 l/m 18,4 km/h (3 Bft) NW22.5 320 0 min 4,32 klux 0,00 min 13,0 C 10,4 C
05.06.2008 20:31 15,0 C 15,4 C 88 % 1012 hPa 0,0 l/m 13,4 km/h (3 Bft) N-NW67.5 330 0 min 3,41 klux 0,00 min 13,0 C 11,7 C
05.06.2008 20:46 15,0 C 15,3 C 89 % 1013 hPa 0,0 l/m 7,9 km/h (2 Bft) N-NW45 330 0 min 2,70 klux 0,00 min 13,2 C 14,2 C
05.06.2008 21:01 15,0 C 15,1 C 89 % 1013 hPa 0,0 l/m 11,8 km/h (2 Bft) N22.5 10 0 min 1,60 klux 0,00 min 13,2 C 12,4 C
05.06.2008 21:16 14,9 C 15,1 C 90 % 1013 hPa 0,0 l/m 11,5 km/h (2 Bft) N-NW45 335 0 min 1,07 klux 0,00 min 13,3 C 12,4 C
05.06.2008 21:31 14,7 C 14,9 C 90 % 1013 hPa 0,0 l/m 10,5 km/h (2 Bft) N-NW67.5 345 0 min 399 lux 0,00 min 13,1 C 12,6 C
05.06.2008 21:46 14,6 C 14,8 C 91 % 1013 hPa 0,0 l/m 9,1 km/h (2 Bft) N67.5 360 0 min 124 lux 0,00 min 13,1 C 13,1 C
05.06.2008 22:01 14,6 C 14,7 C 91 % 1013 hPa 0,0 l/m 1,2 km/h (1 Bft) N 355 0 min 35 lux 0,00 min 13,1 C 14,6 C
05.06.2008 22:17 14,6 C 14,7 C 91 % 1013 hPa 0,0 l/m 7,4 km/h (2 Bft) N-NW45 340 0 min 7 lux 0,00 min 13,1 C 14,0 C
05.06.2008 22:31 14,5 C 14,6 C 92 % 1013 hPa 0,0 l/m 9,4 km/h (2 Bft) N45 355 0 min 0 lux 0,00 min 13,2 C 12,9 C
05.06.2008 22:46 14,5 C 14,6 C 92 % 1013 hPa 0,0 l/m 8,1 km/h (2 Bft) N-NW22.5 340 0 min 0 lux 0,00 min 13,2 C 13,5 C
05.06.2008 23:01 14,5 C 14,5 C 93 % 1013 hPa 0,0 l/m 3,6 km/h (1 Bft) N45 350 0 min 0 lux 0,00 min 13,4 C 14,5 C
05.06.2008 23:16 14,4 C 14,5 C 93 % 1013 hPa 0,0 l/m 11,6 km/h (2 Bft) N22.5 10 0 min 0 lux 0,00 min 13,3 C 11,7 C
05.06.2008 23:31 14,4 C 14,5 C 93 % 1013 hPa 0,0 l/m 8,4 km/h (2 Bft) N67.5 5 0 min 0 lux 0,00 min 13,3 C 13,3 C
05.06.2008 23:46 14,3 C 14,3 C 93 % 1013 hPa 0,0 l/m 9,7 km/h (2 Bft) N-NW22.5 335 0 min 0 lux 0,00 min 13,2 C 12,5 C
05.06.2008 23:55 14,2 C 14,1 C 93 % 1013 hPa 0,0 l/m 11,0 km/h (2 Bft) N-NW45 340 0 min 0 lux 0,00 min 13,1 C 11,8 C
_ Min-Zeit 08:46 05:16 16:47 16:16 - 00:01 - - - - - 08:46 11:01
Minimum _ 13,5 C 13,6 C 79 % 1012 hPa - 0,0 km/h (0 Bft) - - - - - 12,7 C 10,3 C
_ Max-Zeit 15:46 16:16 05:46 00:01 09:46 17:16 - - 00:01 16:01 09:46 14:31 22:01
Maximum _ 18,1 C 22,4 C 96 % 1015 hPa 0,3 l/m 22,2 km/h
N-NW (4 Bft)
- - 0 min 56,8 klux 14,00 min 14,7 C 14,6 C
Durchschnitt _ 15,1 C 16,0 C 91 % 1013 hPa #0,3 l/m 10,5 km/h (2 Bft) N - #0 min. 12,9 klux #14 min. 13,5 C 13,0 C